TimeMST,TemperatureF,Dew PointF,Humidity,Sea Level PressureIn,VisibilityMPH,Wind Direction,Wind SpeedMPH,Gust SpeedMPH,PrecipitationIn,Events,Conditions,WindDirDegrees,DateUTC
12:53 AM,19.9,16.0,85,30.09,7.0,WNW,4.6,-,N/A,,Overcast,290,2012-12-30 07:53:00
1:53 AM,21.0,18.0,88,30.07,9.0,North,3.5,-,N/A,,Overcast,10,2012-12-30 08:53:00
2:53 AM,19.9,17.1,89,30.10,7.0,NW,6.9,-,N/A,,Overcast,310,2012-12-30 09:53:00
3:53 AM,21.0,18.0,88,30.09,8.0,WNW,3.5,-,N/A,,Overcast,300,2012-12-30 10:53:00
4:53 AM,21.0,18.0,88,30.11,6.0,West,3.5,-,N/A,,Overcast,260,2012-12-30 11:53:00
5:53 AM,21.9,18.0,85,30.10,7.0,WNW,3.5,-,N/A,,Overcast,300,2012-12-30 12:53:00
6:53 AM,21.0,18.0,88,30.11,7.0,Calm,Calm,-,N/A,,Mostly Cloudy,0,2012-12-30 13:53:00
7:53 AM,19.9,18.0,92,30.11,6.0,Calm,Calm,-,N/A,,Overcast,0,2012-12-30 14:53:00
8:53 AM,19.0,17.1,92,30.13,4.0,WSW,3.5,-,N/A,,Mostly Cloudy,240,2012-12-30 15:53:00
9:53 AM,21.9,17.1,82,30.13,7.0,Calm,Calm,-,N/A,,Mostly Cloudy,0,2012-12-30 16:53:00
10:53 AM,23.0,17.1,78,30.14,7.0,Calm,Calm,-,N/A,,Mostly Cloudy,0,2012-12-30 17:53:00
11:53 AM,25.0,17.1,72,30.12,8.0,West,4.6,-,N/A,,Mostly Cloudy,280,2012-12-30 18:53:00
12:53 PM,26.1,18.0,71,30.11,10.0,North,5.8,-,N/A,,Scattered Clouds,360,2012-12-30 19:53:00
1:53 PM,28.0,19.0,69,30.08,10.0,NNW,5.8,-,N/A,,Scattered Clouds,330,2012-12-30 20:53:00
2:53 PM,28.0,19.0,69,30.09,8.0,North,5.8,-,N/A,,Mostly Cloudy,360,2012-12-30 21:53:00
3:53 PM,27.0,19.9,75,30.09,7.0,NW,8.1,-,N/A,,Mostly Cloudy,310,2012-12-30 22:53:00
4:53 PM,24.1,18.0,77,30.10,7.0,NNW,6.9,-,N/A,,Mostly Cloudy,340,2012-12-30 23:53:00
5:24 PM,24.1,19.0,81,30.01,7.0,North,6.9,-,N/A,,Overcast,350,2012-12-31 00:24:00
5:53 PM,24.1,19.9,84,30.10,6.0,North,8.1,-,N/A,,Overcast,360,2012-12-31 00:53:00
6:53 PM,25.0,21.0,85,30.11,6.0,North,5.8,-,N/A,,Overcast,360,2012-12-31 01:53:00
7:53 PM,25.0,21.0,85,30.11,6.0,NNW,4.6,-,N/A,,Overcast,340,2012-12-31 02:53:00
8:48 PM,19.4,17.6,93,30.03,5.0,NNW,5.8,-,N/A,,Scattered Clouds,340,2012-12-31 03:48:00
8:53 PM,21.0,18.0,88,30.14,5.0,NNW,4.6,-,N/A,,Mostly Cloudy,340,2012-12-31 03:53:00
9:00 PM,21.0,18.0,88,30.03,5.0,NNW,5.8,-,N/A,,Mostly Cloudy,340,2012-12-31 04:00:00
9:53 PM,24.1,19.9,84,30.13,6.0,North,6.9,-,N/A,,Overcast,350,2012-12-31 04:53:00
10:41 PM,21.0,17.1,85,30.05,10.0,NW,8.1,-,N/A,,Mostly Cloudy,320,2012-12-31 05:41:00
10:53 PM,21.0,16.0,81,30.15,10.0,NNW,8.1,-,N/A,,Mostly Cloudy,330,2012-12-31 05:53:00
11:53 PM,17.1,12.0,81,30.16,10.0,NNW,6.9,-,N/A,,Scattered Clouds,330,2012-12-31 06:53:00